When you browse on this site, cookies collect data to enhance your experience and personalize the content and advertising you see.
Visit our Privacy Policy to learn more. By continuing to use the site, you agree to this use of cookies and data.
  • In Österreich
  • Länderverzeichnis
  • Für 7 Tage
  • Wassertemperatur
  • Wetterkarte
  • News
  • Widgets
  • user-avatar
    Anmelden

    Stündliche Wetter Sutatausa

    Heute, 23 September, Montag

    Zeit Temperatur Niederschläge Wind Luftdruck Luftfeuchtigkeit
    00:00 +10°C° 0 mm 1 m/S 548 mmHg 95%
    01:00 +9°C° 0 mm 1 m/S 548 mmHg 95%
    02:00 +9°C° 0 mm 1 m/S 548 mmHg 94%
    03:00 +9°C° 0 mm 1 m/S 548 mmHg 94%
    04:00 +9°C° 0 mm 1 m/S 548 mmHg 93%
    05:00 +10°C° 0 mm 1 m/S 548 mmHg 90%
    06:00 +10°C° 0 mm 1 m/S 549 mmHg 88%
    07:00 +11°C° 0 mm 1 m/S 550 mmHg 85%
    08:00 +13°C° 0 mm 1 m/S 551 mmHg 76%
    09:00 +16°C° 0 mm 1 m/S 552 mmHg 66%
    10:00 +19°C° 0 mm 1 m/S 554 mmHg 56%
    11:00 +19°C° 0.3 mm 1 m/S 553 mmHg 59%
    12:00 +18°C° 0.3 mm 2 m/S 552 mmHg 62%
    13:00 +18°C° 0.3 mm 2 m/S 551 mmHg 65%
    14:00 +17°C° 0.8 mm 2 m/S 551 mmHg 71%
    15:00 +17°C° 0.8 mm 2 m/S 550 mmHg 77%
    16:00 +16°C° 0.8 mm 1 m/S 549 mmHg 82%
    17:00 +15°C° 1.2 mm 1 m/S 549 mmHg 87%
    18:00 +13°C° 1.2 mm 1 m/S 548 mmHg 91%
    19:00 +12°C° 1.2 mm 1 m/S 548 mmHg 95%
    20:00 +12°C° 0.8 mm 1 m/S 548 mmHg 96%
    21:00 +11°C° 0.8 mm 1 m/S 548 mmHg 96%
    22:00 +11°C° 0.8 mm 1 m/S 549 mmHg 96%
    23:00 +10°C° 0.2 mm 1 m/S 548 mmHg 96%

    Morgen, 24 September, Dienstag

    Zeit Temperatur Niederschläge Wind Luftdruck Luftfeuchtigkeit
    00:00 +10°C° 0.2 mm 1 m/S 548 mmHg 95%
    01:00 +9°C° 0.2 mm 1 m/S 547 mmHg 94%
    02:00 +9°C° 0 mm 1 m/S 547 mmHg 92%
    03:00 +9°C° 0 mm 1 m/S 547 mmHg 90%
    04:00 +9°C° 0 mm 1 m/S 547 mmHg 88%
    05:00 +10°C° 0 mm 1 m/S 548 mmHg 86%
    06:00 +10°C° 0 mm 1 m/S 549 mmHg 85%
    07:00 +11°C° 0 mm 1 m/S 549 mmHg 83%
    08:00 +13°C° 0.1 mm 1 m/S 551 mmHg 76%
    09:00 +15°C° 0.1 mm 1 m/S 552 mmHg 69%
    10:00 +19°C° 0.1 mm 1 m/S 554 mmHg 62%
    11:00 +19°C° 0.5 mm 1 m/S 553 mmHg 65%
    12:00 +19°C° 0.5 mm 1 m/S 552 mmHg 67%
    13:00 +18°C° 0.5 mm 2 m/S 551 mmHg 70%
    14:00 +18°C° 0.8 mm 1 m/S 550 mmHg 76%
    15:00 +15°C° 0.8 mm 1 m/S 549 mmHg 81%
    16:00 +14°C° 0.8 mm 1 m/S 549 mmHg 87%
    17:00 +14°C° 0.7 mm 1 m/S 548 mmHg 89%
    18:00 +13°C° 0.7 mm 1 m/S 548 mmHg 92%
    19:00 +12°C° 0.7 mm 1 m/S 548 mmHg 94%
    20:00 +12°C° 0.3 mm 1 m/S 549 mmHg 94%
    21:00 +11°C° 0.3 mm 1 m/S 549 mmHg 94%
    22:00 +11°C° 0.3 mm 1 m/S 549 mmHg 94%
    23:00 +11°C° 0.2 mm 1 m/S 549 mmHg 94%

    übermorgen, 25 September, Mittwoch

    Zeit Temperatur Niederschläge Wind Luftdruck Luftfeuchtigkeit
    00:00 +11°C° 0.2 mm 1 m/S 549 mmHg 94%
    01:00 +10°C° 0.2 mm 0 m/S 549 mmHg 94%
    02:00 +10°C° 0.1 mm 0 m/S 548 mmHg 94%
    03:00 +10°C° 0.1 mm 0 m/S 548 mmHg 93%
    04:00 +10°C° 0.1 mm 0 m/S 548 mmHg 93%
    05:00 +10°C° 0 mm 0 m/S 549 mmHg 92%
    06:00 +12°C° 0 mm 1 m/S 549 mmHg 91%
    07:00 +12°C° 0 mm 1 m/S 550 mmHg 90%
    08:00 +13°C° 0.3 mm 1 m/S 551 mmHg 86%
    09:00 +15°C° 0.3 mm 1 m/S 552 mmHg 81%
    10:00 +18°C° 0.3 mm 1 m/S 553 mmHg 77%
    11:00 +18°C° 1.3 mm 1 m/S 552 mmHg 78%
    12:00 +18°C° 1.3 mm 1 m/S 551 mmHg 79%
    13:00 +18°C° 1.3 mm 1 m/S 551 mmHg 79%
    14:00 +18°C° 1.2 mm 1 m/S 550 mmHg 80%
    15:00 +16°C° 1.2 mm 1 m/S 550 mmHg 80%
    16:00 +16°C° 1.2 mm 1 m/S 549 mmHg 81%
    17:00 +15°C° 1 mm 1 m/S 549 mmHg 86%
    18:00 +13°C° 1 mm 1 m/S 548 mmHg 91%
    19:00 +12°C° 1 mm 1 m/S 548 mmHg 96%
    20:00 +12°C° 0.2 mm 1 m/S 548 mmHg 96%
    21:00 +11°C° 0.2 mm 1 m/S 549 mmHg 96%
    22:00 +11°C° 0.2 mm 1 m/S 549 mmHg 96%
    23:00 +11°C° 0 mm 1 m/S 549 mmHg 95%

    26 September, Donnerstag

    Zeit Temperatur Niederschläge Wind Luftdruck Luftfeuchtigkeit
    00:00 +11°C° 0 mm 1 m/S 548 mmHg 95%
    01:00 +10°C° 0 mm 1 m/S 548 mmHg 94%
    02:00 +10°C° 0 mm 1 m/S 548 mmHg 94%
    03:00 +10°C° 0 mm 1 m/S 548 mmHg 94%
    04:00 +10°C° 0 mm 1 m/S 548 mmHg 93%
    05:00 +11°C° 0 mm 1 m/S 548 mmHg 92%
    06:00 +11°C° 0 mm 1 m/S 549 mmHg 91%
    07:00 +11°C° 0 mm 1 m/S 550 mmHg 90%
    08:00 +13°C° 0.1 mm 1 m/S 551 mmHg 82%
    09:00 +15°C° 0.1 mm 2 m/S 552 mmHg 75%
    10:00 +17°C° 0.1 mm 2 m/S 553 mmHg 67%
    11:00 +17°C° 0.5 mm 2 m/S 552 mmHg 70%
    12:00 +17°C° 0.5 mm 2 m/S 551 mmHg 73%
    13:00 +16°C° 0.5 mm 2 m/S 550 mmHg 76%
    14:00 +16°C° 0.5 mm 2 m/S 550 mmHg 75%
    15:00 +16°C° 0.5 mm 3 m/S 549 mmHg 75%
    16:00 +16°C° 0.5 mm 3 m/S 549 mmHg 75%
    17:00 +14°C° 0.2 mm 2 m/S 548 mmHg 81%
    18:00 +12°C° 0.2 mm 2 m/S 548 mmHg 88%
    19:00 +11°C° 0.2 mm 1 m/S 547 mmHg 94%
    20:00 +10°C° 0.1 mm 1 m/S 547 mmHg 94%
    21:00 +10°C° 0.1 mm 1 m/S 548 mmHg 94%
    22:00 +10°C° 0.1 mm 1 m/S 548 mmHg 94%
    23:00 +10°C° 0 mm 1 m/S 548 mmHg 93%

    27 September, Freitag

    Zeit Temperatur Niederschläge Wind Luftdruck Luftfeuchtigkeit
    00:00 +11°C° 0 mm 1 m/S 548 mmHg 92%
    01:00 +11°C° 0 mm 1 m/S 548 mmHg 91%
    02:00 +10°C° 0 mm 1 m/S 547 mmHg 91%
    03:00 +10°C° 0 mm 1 m/S 547 mmHg 92%
    04:00 +9°C° 0 mm 1 m/S 547 mmHg 92%
    05:00 +10°C° 0 mm 1 m/S 548 mmHg 90%
    06:00 +11°C° 0 mm 1 m/S 549 mmHg 87%
    07:00 +12°C° 0 mm 1 m/S 550 mmHg 84%
    08:00 +14°C° 0.1 mm 1 m/S 551 mmHg 77%
    09:00 +16°C° 0.1 mm 2 m/S 552 mmHg 70%
    10:00 +18°C° 0.1 mm 2 m/S 553 mmHg 63%
    11:00 +18°C° 0.5 mm 2 m/S 552 mmHg 63%
    12:00 +18°C° 0.5 mm 3 m/S 552 mmHg 63%
    13:00 +18°C° 0.5 mm 3 m/S 551 mmHg 63%
    14:00 +18°C° 0.7 mm 2 m/S 551 mmHg 68%
    15:00 +17°C° 0.7 mm 2 m/S 550 mmHg 72%
    16:00 +16°C° 0.7 mm 2 m/S 549 mmHg 76%
    17:00 +15°C° 0.5 mm 1 m/S 549 mmHg 82%
    18:00 +13°C° 0.5 mm 1 m/S 548 mmHg 88%
    19:00 +11°C° 0.5 mm 1 m/S 547 mmHg 94%
    20:00 +11°C° 0.1 mm 1 m/S 547 mmHg 95%
    21:00 +10°C° 0.1 mm 1 m/S 548 mmHg 95%
    22:00 +9°C° 0.1 mm 0 m/S 548 mmHg 95%
    23:00 +9°C° 0 mm 0 m/S 547 mmHg 94%

    28 September, Samstag

    Zeit Temperatur Niederschläge Wind Luftdruck Luftfeuchtigkeit
    00:00 +8°C° 0 mm 0 m/S 547 mmHg 94%
    01:00 +8°C° 0 mm 0 m/S 547 mmHg 93%
    02:00 +8°C° 0 mm 0 m/S 547 mmHg 93%
    03:00 +8°C° 0 mm 0 m/S 546 mmHg 92%
    04:00 +8°C° 0 mm 0 m/S 546 mmHg 92%
    05:00 +9°C° 0 mm 0 m/S 547 mmHg 89%
    06:00 +10°C° 0 mm 0 m/S 548 mmHg 87%
    07:00 +11°C° 0 mm 0 m/S 549 mmHg 84%
    08:00 +13°C° 0.1 mm 0 m/S 551 mmHg 76%
    09:00 +16°C° 0.1 mm 1 m/S 552 mmHg 67%
    10:00 +20°C° 0.1 mm 1 m/S 553 mmHg 59%
    11:00 +20°C° 0.4 mm 1 m/S 552 mmHg 60%
    12:00 +20°C° 0.4 mm 1 m/S 551 mmHg 62%
    13:00 +20°C° 0.4 mm 1 m/S 551 mmHg 63%
    14:00 +19°C° 0.9 mm 1 m/S 550 mmHg 70%
    15:00 +18°C° 0.9 mm 1 m/S 549 mmHg 77%
    16:00 +16°C° 0.9 mm 1 m/S 548 mmHg 83%
    17:00 +15°C° 1.3 mm 1 m/S 548 mmHg 87%
    18:00 +14°C° 1.3 mm 1 m/S 548 mmHg 91%
    19:00 +12°C° 1.3 mm 0 m/S 548 mmHg 95%
    20:00 +11°C° 0.8 mm 0 m/S 548 mmHg 95%
    21:00 +11°C° 0.8 mm 0 m/S 548 mmHg 96%
    22:00 +10°C° 0.8 mm 0 m/S 548 mmHg 96%
    23:00 +10°C° 0.2 mm 0 m/S 548 mmHg 96%
    Mehr zeigen